Date,TemperatureHighF,TemperatureAvgF,TemperatureLowF,DewpointHighF,DewpointAvgF,DewpointLowF,HumidityHigh,HumidityAvg,HumidityLow,PressureMaxIn,PressureMinIn,WindSpeedMaxMPH,WindSpeedAvgMPH,GustSpeedMaxMPH,PrecipitationSumIn
2013-6-1,89,76,63,74,68,63,99,80,53,30.18,30.10,3,0,7,0.00
2013-6-2,89,76,65,75,71,65,99,87,58,30.13,29.98,4,0,8,0.63
2013-6-3,84,76,71,79,74,71,99,95,81,29.97,29.89,5,0,7,0.86
2013-6-4,87,76,69,77,73,68,100,90,66,30.07,29.93,3,0,7,0.01
2013-6-5,79,76,73,76,74,72,99,95,87,30.07,29.99,3,1,7,0.41
2013-6-6,83,76,72,78,74,71,100,94,81,30.00,29.76,3,0,5,1.79
2013-6-7,84,77,73,75,74,73,99,92,71,29.88,29.55,8,1,14,0.58
2013-6-8,89,80,73,78,74,71,100,84,58,30.12,29.88,5,0,8,0.00
2013-6-9,86,79,73,82,76,72,100,90,74,30.16,30.09,2,0,9,0.08
2013-6-10,89,79,70,79,75,69,99,88,70,30.14,29.99,4,0,13,0.23
2013-6-11,88,78,70,77,74,69,100,87,65,30.04,29.93,5,0,11,0.00
2013-6-12,96,83,71,83,75,71,100,80,51,30.00,29.92,4,0,6,0.00
2013-6-13,96,86,77,82,77,74,99,78,53,29.93,29.72,7,0,12,0.00
2013-6-14,87,79,66,77,66,58,94,67,40,30.01,29.73,4,0,8,0.00
2013-6-15,85,74,61,68,62,50,99,70,31,30.15,30.02,4,0,6,0.00
2013-6-16,90,75,61,71,65,61,99,74,43,30.19,30.08,3,0,6,0.00
2013-6-17,91,78,66,77,72,65,99,83,56,30.11,29.98,4,0,7,0.06
2013-6-18,90,79,72,80,74,68,99,87,65,30.02,29.85,6,0,9,0.48
2013-6-19,83,77,73,77,75,72,98,93,81,30.07,29.89,3,0,5,0.36
2013-6-20,84,74,68,74,69,59,99,85,47,30.19,30.06,6,1,9,1.34
2013-6-21,85,74,64,74,69,62,97,84,64,30.20,30.13,4,1,7,0.00
2013-6-22,86,76,68,76,72,67,99,89,67,30.18,30.11,2,0,4,0.08
2013-6-23,88,78,70,79,74,70,100,88,63,30.21,30.14,2,0,5,0.00
2013-6-24,88,79,74,79,76,73,99,90,72,30.25,30.16,4,0,7,0.04
2013-6-25,93,80,74,80,76,72,99,88,59,30.18,30.07,4,0,6,0.06
2013-6-26,90,78,72,78,74,71,100,88,61,30.09,29.97,3,0,9,0.05
2013-6-27,93,80,72,82,76,69,99,89,61,30.01,29.81,3,0,7,0.04
2013-6-28,93,83,76,82,78,74,97,86,59,29.85,29.68,3,0,9,0.00
2013-6-29,90,79,72,80,75,71,98,88,65,29.79,29.70,4,0,10,0.14
2013-6-30,83,76,71,80,75,70,99,96,86,29.88,29.75,2,0,10,0.80